Weather History for Wolf Point, MT

Change the Weather History Date:

Tuesday, February 5, 2013

  Actual Average Record
Temperature  
Mean Temperature 25 °F -  
Max Temperature 32 °F 27 °F 46 °F (2012)
Min Temperature 17 °F 2 °F -16 °F (2014)
Degree Days  
Heating Degree Days 40    
Cooling Degree Days 0    
Moisture  
Dew Point 21 °F    
Average Humidity 83    
Maximum Humidity 89    
Minimum Humidity 72    
Precipitation  
Precipitation 0.00 in 0.00 in 0.05 in (2006)
Month to date precipitation 0.08 0.03  
Year to date precipitation 0.19 0.34  
Sea Level Pressure  
Sea Level Pressure 29.91 in    
Wind  
Wind Speed 7 mph (ENE)    
Max Wind Speed 13 mph    
Max Gust Speed -    
Visibility 10 miles    
Events      
T = Trace of Precipitation, MM = Missing Value Source: NWS Daily Summary

Daily Weather History Graph

Daily Weather History Graph

Search for Another Location

Airport:

Trip Planner

Search our weather history database for the weather conditions in past years. The results will help you decide how hot, cold, wet, or windy it might be!

Date:

Astronomy

Feb. 05, 2013 Rise Set
Actual Time 7:24 AM MST 5:09 PM MST
Civil Twilight 6:51 AM MST 5:42 PM MST
Nautical Twilight 6:14 AM MST 6:19 PM MST
Astronomical Twilight 5:38 AM MST 6:55 PM MST
Moon 3:17 AM MST (2/5) 12:20 PM MST (2/5)
Length of Visible Light 10h 50m
Length of Day
9h 44m
Waning Crescent, 26% of the Moon is Illuminated
Feb 5
Waning Crescent
Feb 10
New
Feb 17
First Quarter
Feb 25
Full
Mar 4
Last Quarter

Hourly Weather History & Observations

Time (MST) Temp. Windchill Dew Point Humidity Pressure Visibility Wind Dir Wind Speed Gust Speed Precip Events Conditions
12:53 AM 28.9 °F 19.8 °F 21.9 °F 75% 29.92 in 10.0 mi WNW 10.4 mph - N/A   Clear
1:53 AM 28.0 °F 19.3 °F 21.0 °F 75% 29.95 in 10.0 mi WSW 9.2 mph - N/A   Scattered Clouds
2:53 AM 24.1 °F 15.2 °F 19.9 °F 84% 29.96 in 10.0 mi SW 8.1 mph - N/A   Clear
3:53 AM 25.0 °F 13.6 °F 19.9 °F 81% 29.99 in 10.0 mi WSW 12.7 mph - N/A   Clear
4:53 AM 23.0 °F 12.4 °F 19.0 °F 85% 30.01 in 10.0 mi West 10.4 mph - N/A   Overcast
5:53 AM 19.9 °F 14.9 °F 17.1 °F 89% 30.02 in 10.0 mi WNW 3.5 mph - N/A   Mostly Cloudy
6:53 AM 19.9 °F - 17.1 °F 89% 30.03 in 10.0 mi Calm Calm - N/A   Mostly Cloudy
7:53 AM 18.0 °F 9.8 °F 15.1 °F 88% 30.03 in 10.0 mi SW 5.8 mph - N/A   Overcast
8:53 AM 19.9 °F - 16.0 °F 85% 30.04 in 10.0 mi Calm Calm - N/A   Overcast
9:53 AM 23.0 °F - 19.0 °F 85% 30.04 in 10.0 mi Calm Calm - N/A   Overcast
10:53 AM 27.0 °F - 19.9 °F 75% 30.02 in 10.0 mi Calm Calm - N/A   Partly Cloudy
11:53 AM 28.9 °F - 23.0 °F 78% 29.99 in 10.0 mi Calm Calm - N/A   Overcast
12:53 PM 30.9 °F 27.5 °F 23.0 °F 72% 29.95 in 10.0 mi NE 3.5 mph - N/A   Clear
1:53 PM 30.9 °F 25.2 °F 24.1 °F 76% 29.92 in 10.0 mi ENE 5.8 mph - N/A   Overcast
2:53 PM 30.9 °F 24.3 °F 25.0 °F 79% 29.90 in 10.0 mi ENE 6.9 mph - N/A   Overcast
3:53 PM 30.0 °F 22.4 °F 24.1 °F 79% 29.86 in 10.0 mi ENE 8.1 mph - N/A   Mostly Cloudy
4:53 PM 28.0 °F 21.7 °F 24.1 °F 85% 29.85 in 10.0 mi ENE 5.8 mph - N/A   Clear
5:53 PM 25.0 °F 15.5 °F 21.9 °F 88% 29.84 in 10.0 mi ENE 9.2 mph - N/A   Clear
6:53 PM 24.1 °F 15.2 °F 19.9 °F 84% 29.82 in 10.0 mi ENE 8.1 mph - N/A   Clear
7:53 PM 25.0 °F 15.5 °F 21.0 °F 85% 29.80 in 10.0 mi ENE 9.2 mph - N/A   Mostly Cloudy
8:53 PM 25.0 °F 18.1 °F 21.9 °F 88% 29.78 in 10.0 mi East 5.8 mph - N/A   Overcast
9:53 PM 24.1 °F 16.0 °F 21.0 °F 88% 29.76 in 10.0 mi East 6.9 mph - N/A   Mostly Cloudy
10:53 PM 24.1 °F 17.0 °F 21.0 °F 88% 29.74 in 10.0 mi ENE 5.8 mph - N/A   Overcast
11:53 PM 23.0 °F - 19.4 °F 86% 29.66 in 10.0 mi Calm Calm - N/A   Clear